WA1NHP Weather Reports


time (UTC)temp
F
wind
direction
speed
knots
gust
knots
rain 1hr
in
rain 24hr
in
rain mn
in
humidity
%
barometer
mb
20260510193404 69 266 3.5 8.7 0.00 0.15 0.00 60 1023.9
20260510192403 67 271 2.6 8.7 0.00 0.16 0.00 63 1023.9
20260510191404 68 275 0.9 12.2 0.00 0.17 0.00 65 1023.9
20260510190404 68 264 2.6 7.8 0.00 0.18 0.00 71 1023.9
20260510185403 64 245 0.0 2.6 0.00 0.19 0.00 75 1023.9
20260510184404 63 295 0.9 5.2 0.00 0.20 0.00 74 1023.9
20260510183404 64 338 0.0 8.7 0.00 0.21 0.00 72 1023.9
20260510182404 67 269 5.2 11.3 0.00 0.22 0.00 65 1023.9
20260510181404 68 281 2.6 11.3 0.00 0.23 0.00 65 1023.9
20260510180404 68 228 2.6 10.4 0.00 0.24 0.00 67 1023.9
20260510175404 68 237 1.7 8.7 0.00 0.25 0.00 68 1023.9
20260510174403 67 228 4.3 8.7 0.00 0.26 0.00 70 1023.9
20260510173404 65 206 2.6 10.4 0.00 0.27 0.00 70 1023.9
20260510172404 67 265 4.3 13.0 0.00 0.29 0.00 72 1023.9
20260510171404 66 183 3.5 11.3 0.00 0.30 0.00 72 1023.9
20260510170404 64 215 6.1 11.3 0.00 0.31 0.00 76 1023.9
20260510165404 63 203 3.5 10.4 0.00 0.32 0.00 73 1023.9
20260510164403 64 201 2.6 11.3 0.00 0.34 0.00 71 1023.9
20260510163404 66 196 2.6 7.8 0.00 0.35 0.00 73 1023.9
20260510162404 65 216 4.3 11.3 0.00 0.37 0.00 73 1023.9
20260510161403 64 148 0.0 10.4 0.00 0.39 0.00 78 1023.9
20260510160404 63 207 6.1 8.7 0.00 0.40 0.00 77 1023.9
20260510155403 63 233 2.6 12.2 0.00 0.41 0.00 78 1023.9
20260510154404 62 146 2.6 12.2 0.00 0.42 0.00 80 1023.9
20260510153405 61 160 0.0 5.2 0.00 0.43 0.00 84 1023.9
20260510152404 59 114 2.6 6.1 0.00 0.44 0.00 83 1023.9
20260510151404 60 180 2.6 6.1 0.00 0.45 0.00 83 1023.9
20260510150403 59 212 1.7 10.4 0.00 0.46 0.00 88 1023.9
20260510145404 58 189 4.3 10.4 0.00 0.46 0.00 89 1023.9
20260510144403 57 183 2.6 7.8 0.00 0.47 0.00 88 1023.9
20260510143404 56 168 1.7 7.0 0.00 0.48 0.00 91 1023.9
20260510142404 55 202 0.0 6.1 0.00 0.48 0.00 92 1023.9
20260510141404 55 185 3.5 10.4 0.00 0.48 0.00 92 1023.9
20260510140404 54 202 1.7 6.1 0.00 0.48 0.00 94 1023.9
20260510135405 54 198 2.6 7.0 0.00 0.48 0.00 95 1023.9
20260510134404 53 240 0.0 7.0 0.00 0.49 0.00 95 1023.9
20260510133404 53 131 0.9 6.1 0.00 0.49 0.00 96 1023.9
20260510132403 53 201 0.9 8.7 0.00 0.49 0.00 97 1023.9
20260510131404 52 199 2.6 8.7 0.00 0.50 0.00 97 1023.9
20260510130404 52 178 2.6 6.1 0.00 0.50 0.00 98 1023.9
20260510125403 52 209 2.6 6.1 0.00 0.50 0.00 98 1023.9
20260510124404 51 201 0.9 6.1 0.00 0.51 0.00 98 1023.9
20260510123403 51 205 2.6 4.3 0.00 0.51 0.00 98 1023.9
20260510122403 51 236 2.6 7.0 0.00 0.51 0.00 98 1023.9
20260510121403 50 209 1.7 6.1 0.00 0.52 0.00 98 1023.9
20260510120404 50 196 2.6 7.8 0.00 0.52 0.00 98 1023.9
20260510115404 50 214 3.5 10.4 0.00 0.53 0.00 98 1023.9
20260510114403 50 217 2.6 10.4 0.00 0.53 0.00 98 1023.9
20260510113404 50 226 0.9 2.6 0.00 0.54 0.00 98 1023.9
20260510112403 49 192 2.6 5.2 0.00 0.55 0.00 98 1023.9
20260510111404 49 195 0.9 7.8 0.00 0.55 0.00 98 1023.9
20260510110404 49 186 3.5 7.8 0.00 0.55 0.00 98 1023.9
20260510105405 49 185 3.5 6.1 0.00 0.55 0.00 98 1023.9
20260510104404 49 226 2.6 7.0 0.00 0.55 0.00 98 1023.9
20260510103404 49 185 2.6 6.1 0.00 0.55 0.00 98 1023.9
20260510102404 49 201 2.6 7.0 0.00 0.55 0.00 98 1023.9
20260510101404 49 178 1.7 2.6 0.00 0.55 0.00 98 1023.9
20260510095403 49 220 1.7 7.8 0.00 0.55 0.00 98 1023.9
20260510094403 49 206 1.7 7.8 0.00 0.55 0.00 98 1023.9
20260510093403 49 188 2.6 10.4 0.00 0.55 0.00 98 1023.9
20260510092404 49 198 1.7 8.7 0.00 0.55 0.00 98 1023.9
20260510091404 49 160 1.7 10.4 0.00 0.55 0.00 98 1023.9
20260510090404 49 192 2.6 7.0 0.00 0.55 0.00 98 1023.9
20260510085403 49 197 4.3 8.7 0.00 0.55 0.00 98 1023.9
20260510083404 49 222 1.7 6.1 0.00 0.55 0.00 98 1023.9
20260510082404 49 198 0.9 4.3 0.00 0.55 0.00 98 1023.9
20260510081404 49 193 2.6 7.8 0.00 0.55 0.00 98 1023.9
20260510080404 49 199 2.6 4.3 0.00 0.55 0.00 98 1023.9
20260510075404 49 203 0.0 0.0 0.00 0.55 0.00 98 1023.9
20260510074404 49 203 0.0 4.3 0.00 0.55 0.00 98 1023.9
20260510073404 49 202 1.7 6.1 0.00 0.55 0.00 98 1023.9
20260510072403 49 196 0.0 1.7 0.00 0.55 0.00 98 1023.9
20260510071404 49 196 0.0 0.0 0.00 0.55 0.00 98 1023.9
20260510070403 49 196 0.0 0.9 0.00 0.55 0.00 98 1023.9
20260510065403 49 196 0.0 2.6 0.00 0.55 0.00 98 1023.9
20260510063404 49 191 3.5 7.8 0.00 0.55 0.00 98 1023.9
20260510062404 49 217 1.7 5.2 0.00 0.55 0.00 98 1023.9
20260510061404 49 219 1.7 7.8 0.00 0.55 0.00 98 1023.9
20260510060403 49 194 0.0 2.6 0.00 0.55 0.00 98 1023.9
20260510055404 49 189 0.0 2.6 0.00 0.55 0.00 98 1023.9
20260510054403 49 194 0.0 4.3 0.00 0.55 0.00 98 1023.9
20260510053404 49 193 0.9 6.1 0.00 0.55 0.00 98 1023.9
20260510052404 49 152 2.6 6.1 0.00 0.55 0.00 98 1023.9
20260510051404 49 170 1.7 5.2 0.00 0.55 0.00 98 1023.9
20260510050404 49 167 1.7 7.0 0.00 0.55 0.00 98 1023.9
20260510045404 49 165 1.7 7.8 0.00 0.55 0.00 98 1023.9
20260510044404 49 161 0.9 7.0 0.00 0.55 0.00 98 1023.9
20260510043404 49 189 1.7 7.0 0.00 0.55 0.00 98 1023.9
20260510042404 48 161 1.7 6.1 0.00 0.55 0.00 98 1023.9
20260510041403 48 134 0.9 6.1 0.00 0.55 0.00 98 1023.9
20260510040404 48 165 0.0 5.2 0.00 0.55 0.00 98 1023.9
20260510035403 48 135 0.0 2.6 0.00 0.55 0.55 98 1023.9
20260510034404 48 131 0.0 1.7 0.00 0.55 0.55 98 1023.9
20260510033404 48 130 0.0 2.6 0.00 0.55 0.55 98 1023.9
20260510032403 48 124 0.0 6.1 0.00 0.55 0.55 98 1023.9
20260510030404 48 140 0.9 6.1 0.00 0.55 0.55 98 1023.9
20260510025404 48 135 1.7 6.1 0.00 0.55 0.55 97 1023.9
20260510024405 48 140 0.0 4.3 0.00 0.55 0.55 98 1023.9
20260510023403 48 148 0.0 4.3 0.00 0.55 0.55 97 1023.9
20260510022404 48 138 0.9 6.1 0.00 0.55 0.55 97 1023.9
20260510021403 48 149 0.9 5.2 0.00 0.55 0.55 98 1023.9
20260510020404 47 172 0.0 2.6 0.00 0.55 0.55 98 1023.9
20260510015404 47 151 0.0 2.6 0.00 0.55 0.55 98 1023.9
20260510014403 47 164 1.7 7.0 0.00 0.55 0.55 98 1023.9
20260510013404 47 138 0.0 4.3 0.00 0.55 0.55 97 1023.9
20260510012404 47 140 0.0 5.2 0.00 0.55 0.55 97 1023.9
20260510011404 47 163 0.9 5.2 0.00 0.55 0.55 97 1023.9
20260510010403 47 150 0.0 6.1 0.00 0.55 0.55 97 1023.9
20260510005404 47 127 0.0 6.1 0.00 0.55 0.55 97 1023.9
20260510004404 47 166 0.9 5.2 0.00 0.55 0.55 97 1023.9
20260510003403 47 142 0.9 7.0 0.00 0.55 0.55 97 1023.9
20260510002404 48 157 1.7 7.0 0.00 0.55 0.55 97 1023.9
20260510001404 47 162 2.6 7.0 0.00 0.55 0.55 97 1023.9
20260509235404 47 166 4.3 8.7 0.00 0.55 0.55 97 1023.9
20260509234404 47 187 2.6 6.1 0.00 0.55 0.55 97 1023.9
20260509233403 47 151 0.9 8.7 0.01 0.55 0.55 97 1023.9
20260509232403 47 152 1.7 7.0 0.01 0.55 0.55 97 1023.9
20260509231403 47 125 2.6 6.1 0.01 0.55 0.55 97 1023.9
20260509225404 47 131 0.9 7.8 0.01 0.55 0.55 97 1023.9
20260509224405 47 135 0.9 7.0 0.01 0.55 0.55 97 1023.9
20260509223404 47 134 1.7 8.7 0.01 0.54 0.54 97 1023.9
20260509222404 47 156 2.6 7.0 0.03 0.54 0.54 97 1023.9
20260509221404 47 125 0.0 7.8 0.04 0.54 0.54 97 1023.9
20260509220404 47 113 1.7 7.8 0.05 0.54 0.54 97 1023.9
20260509215404 48 115 0.0 7.8 0.06 0.54 0.54 97 1023.9
20260509212404 48 137 0.9 5.2 0.06 0.51 0.51 97 1023.9
20260509211403 48 137 0.9 7.0 0.05 0.50 0.50 97 1023.9
20260509210404 48 130 0.9 7.8 0.05 0.49 0.49 97 1023.9
20260509205405 47 153 2.6 7.8 0.05 0.48 0.48 97 1023.9
20260509203404 47 152 1.7 5.2 0.06 0.46 0.46 97 1023.9
20260509202404 47 126 1.7 6.1 0.06 0.45 0.45 97 1023.9
20260509201404 47 130 0.9 7.0 0.07 0.45 0.45 97 1023.9
20260509200404 47 132 2.6 6.1 0.07 0.44 0.44 97 1023.9
20260509195404 46 125 0.9 2.6 0.07 0.43 0.43 97 1023.9
20260509194404 46 142 0.0 0.0 0.07 0.42 0.42 96 1023.9